User: anonymous   Login
Location: Norwich
(52.6280°N, 1.3030°E)
Time: 13:33:56
(UTC+00:00)
Language:

Meteor 1-22 Rocket - Orbit

View from above orbital plane
View from above orbital plane
View from above satellite
View from above satellite

Ground track
Ground track

The orbit data is extracted from the following two-line orbital elements,

1 08294U 75087B   14303.35119824  .00000155  00000-0  79395-4 0  1084
2 08294 081.2190 239.0503 0105998 231.6303 242.8254 14.08502554  9592
Epoch (UTC): 30 October 2014 08:25:43
Eccentricity: 0.0105998
inclination: 81.2190°
perigee height: 788 km
apogee height: 941 km
right ascension of ascending node: 239.0503°
argument of perigee: 231.6303°
revolutions per day: 14.08502554
mean anomaly at epoch: 242.8254°
orbit number at epoch: 959

The dashed part of the orbit path shows where the satellite is in the earth's shadow,  

DLR